Moose, WY

12:58 PM MST on February 13, 2016 (GMT -0700)
Jackson Hole

Weather History for KJAC - November, 2012

Change the Weather History Date:

Sunday, November 11, 2012

  Actual Average Record
Temperature  
Mean Temperature 14 °F -  
Max Temperature 21 °F 38 °F - (-1)
Min Temperature 8 °F 15 °F - (-1)
Degree Days  
Heating Degree Days 50    
Moisture  
Dew Point 9 °F    
Average Humidity 75    
Maximum Humidity 86    
Minimum Humidity 49    
Precipitation  
Precipitation 0.00 in - - ()
Sea Level Pressure  
Sea Level Pressure 30.05 in    
Wind  
Wind Speed 7 mph (South)    
Max Wind Speed 18 mph    
Max Gust Speed 23 mph    
Visibility 10 miles    
Events Snow    
Averages and records for this station are not official NWS values.
T = Trace of Precipitation, MM = Missing Value Source: NWS Daily Summary

Daily Weather History Graph

Daily Weather History Graph

Search for Another Location

Airport or City:

Trip Planner

Search our weather history database for the weather conditions in past years. The results will help you decide how hot, cold, wet, or windy it might be!

Date:

Astronomy

Nov. 11, 2012 Rise Set
Actual Time 7:12 AM MST 5:01 PM MST
Civil Twilight 6:41 AM MST 5:31 PM MST
Nautical Twilight 6:07 AM MST 6:06 PM MST
Astronomical Twilight 5:33 AM MST 6:39 PM MST
Moon 4:26 AM MST (11/11) 3:29 PM MST (11/11)
Length of Visible Light 10h 50m
Length of Day
9h 48m
Waning Crescent, 7% of the Moon is Illuminated
Nov 11
Waning Crescent
Nov 13
New
Nov 20
First Quarter
Nov 28
Full
Dec 6
Last Quarter

Hourly Weather History & Observations

Time (MST) Temp. Windchill Dew Point Humidity Pressure Visibility Wind Dir Wind Speed Gust Speed Precip Events Conditions
12:15 AM 15.8 °F 8.6 °F 12.2 °F 86% 29.85 in 10.0 mi North 4.6 mph - N/A   Overcast
12:35 AM 15.8 °F 5.1 °F 12.2 °F 86% 29.86 in 10.0 mi North 8.1 mph - N/A   Overcast
12:55 AM 15.8 °F 7.2 °F 10.4 °F 79% 29.86 in 10.0 mi North 5.8 mph - N/A   Overcast
1:35 AM 12.2 °F 4.3 °F 8.6 °F 85% 29.87 in 10.0 mi NNW 4.6 mph - N/A   Scattered Clouds
2:15 AM 12.2 °F - 8.6 °F 85% 29.88 in 10.0 mi Calm Calm - N/A   Partly Cloudy
2:35 AM 12.2 °F - 6.8 °F 79% 29.89 in 10.0 mi Calm Calm - N/A   Clear
2:55 AM 12.2 °F - 8.6 °F 85% 29.89 in 10.0 mi Calm Calm - N/A   Clear
3:15 AM 10.4 °F 2.2 °F 6.8 °F 85% 29.90 in 10.0 mi NE 4.6 mph - N/A   Clear
3:55 AM 8.6 °F 2.0 °F 5.0 °F 85% 29.90 in 10.0 mi East 3.5 mph - N/A   Overcast
4:15 AM 8.6 °F -1.3 °F 5.0 °F 85% 29.90 in 10.0 mi East 5.8 mph - N/A   Overcast
4:35 AM 10.4 °F - 6.8 °F 85% 29.91 in 10.0 mi Calm Calm - N/A   Overcast
4:55 AM 12.2 °F 4.3 °F 8.6 °F 85% 29.92 in 10.0 mi SE 4.6 mph - N/A   Overcast
5:15 AM 14.0 °F 3.9 °F 8.6 °F 79% 29.92 in 10.0 mi South 6.9 mph - N/A   Overcast
6:15 AM 15.8 °F - 8.6 °F 73% 29.94 in 10.0 mi Calm Calm - N/A   Overcast
6:35 AM 15.8 °F - 10.4 °F 79% 29.95 in 10.0 mi Calm Calm - N/A   Overcast
6:53 AM 15.8 °F 7.2 °F 10.4 °F 79% 29.95 in 8.0 mi SSE 5.8 mph - N/A   Mostly Cloudy
6:55 AM 15.8 °F 10.2 °F 10.4 °F 79% 29.95 in 10.0 mi South 3.5 mph - N/A   Overcast
7:52 AM 15.8 °F 8.6 °F 12.2 °F 86% 29.97 in 7.0 mi South 4.6 mph - N/A Snow Light Snow
8:52 AM 17.6 °F 9.3 °F 10.4 °F 73% 30.00 in 8.0 mi South 5.8 mph - N/A   Mostly Cloudy
9:53 AM 19.4 °F 6.6 °F 6.8 °F 58% 30.02 in 10.0 mi SW 12.7 mph 19.6 mph N/A Snow Snow
10:51 AM 19.4 °F 7.2 °F 6.8 °F 58% 30.04 in 10.0 mi SW 11.5 mph 21.9 mph N/A Snow Snow
11:51 AM 19.4 °F 7.2 °F 6.8 °F 58% 30.05 in 10.0 mi South 11.5 mph 19.6 mph N/A   Mostly Cloudy
12:53 PM 19.4 °F 9.5 °F 3.2 °F 49% 30.07 in 10.0 mi South 8.1 mph 20.7 mph N/A   Mostly Cloudy
1:51 PM 21.2 °F 8.3 °F 6.8 °F 54% 30.08 in 10.0 mi SSW 13.8 mph 19.6 mph N/A Snow Snow
2:51 PM 19.4 °F 6.0 °F 6.8 °F 58% 30.09 in 10.0 mi SSW 13.8 mph 21.9 mph N/A Snow Snow
3:51 PM 19.4 °F 6.6 °F 6.8 °F 58% 30.12 in 10.0 mi SW 12.7 mph 23.0 mph N/A Snow Snow
4:51 PM 17.6 °F 4.3 °F 6.8 °F 63% 30.15 in 10.0 mi SW 12.7 mph 20.7 mph N/A Snow Snow
5:57 PM 17.6 °F 5.7 °F 6.8 °F 63% 30.18 in 10.0 mi SW 10.4 mph - N/A Snow Snow
6:56 PM 17.6 °F 6.4 °F 8.6 °F 68% 30.21 in 10.0 mi SSE 9.2 mph - N/A   Mostly Cloudy
7:57 PM 19.4 °F 6.0 °F 10.4 °F 68% 30.22 in 10.0 mi South 13.8 mph - N/A   Mostly Cloudy
8:51 PM 19.4 °F 6.0 °F 12.2 °F 74% 30.24 in 10.0 mi South 13.8 mph - N/A   Mostly Cloudy
8:55 PM 19.4 °F 5.0 °F 12.2 °F 74% 30.24 in 10.0 mi South 16.1 mph 21.9 mph N/A   Overcast
9:35 PM 19.4 °F 4.5 °F 12.2 °F 74% 30.25 in 10.0 mi South 17.3 mph 21.9 mph N/A   Overcast
9:55 PM 19.4 °F 5.5 °F 12.2 °F 74% 30.26 in 10.0 mi South 15.0 mph - N/A   Overcast
10:35 PM 19.4 °F 6.6 °F 14.0 °F 80% 30.26 in 10.0 mi South 12.7 mph - N/A   Overcast
10:55 PM 19.4 °F 4.1 °F 14.0 °F 80% 30.26 in 10.0 mi South 18.4 mph - N/A   Overcast
11:15 PM 19.4 °F 6.0 °F 14.0 °F 80% 30.26 in 10.0 mi South 13.8 mph - N/A   Overcast
11:35 PM 19.4 °F 5.0 °F 14.0 °F 80% 30.27 in 10.0 mi South 16.1 mph - N/A   Overcast
11:55 PM 19.4 °F 6.0 °F 14.0 °F 80% 30.28 in 10.0 mi South 13.8 mph - N/A   Mostly Cloudy